Time,TemperatureF,DewpointF,PressureIn,WindDirection,WindDirectionDegrees,WindSpeedMPH,WindSpeedGustMPH,Humidity,HourlyPrecipIn,Conditions,Clouds,dailyrainin,SoftwareType,DateUTC
2013-03-17 00:00:00,28.0,15.0,30.01,NNW,340,37.0,52.0,57,-99.99,,,-99.99,,2013-03-17 08:00:00,
2013-03-17 00:41:00,28.0,15.0,30.01,NNW,340,37.0,52.0,57,-99.99,,,-99.99,,2013-03-17 08:41:00,
2013-03-17 00:51:00,28.0,15.0,30.01,NNW,340,37.0,52.0,57,-99.99,,,-99.99,,2013-03-17 08:51:00,
2013-03-17 02:00:00,27.0,14.0,30.02,NNW,340,38.0,52.0,57,-99.99,,,-99.99,,2013-03-17 10:00:00,
2013-03-17 02:42:00,27.0,14.0,30.02,NNW,340,38.0,52.0,57,-99.99,,,-99.99,,2013-03-17 10:42:00,
2013-03-17 02:52:00,27.0,14.0,30.02,NNW,340,38.0,52.0,57,-99.99,,,-99.99,,2013-03-17 10:52:00,
2013-03-17 03:00:00,27.0,12.0,30.04,NNW,340,40.0,56.0,52,-99.99,,,-99.99,,2013-03-17 11:00:00,
2013-03-17 03:42:00,27.0,12.0,30.04,NNW,340,40.0,56.0,52,-99.99,,,-99.99,,2013-03-17 11:42:00,
2013-03-17 03:51:00,27.0,12.0,30.04,NNW,340,40.0,56.0,52,-99.99,,,-99.99,,2013-03-17 11:51:00,
2013-03-17 04:00:00,26.0,13.0,30.04,NNW,330,40.0,53.0,57,-99.99,,,-99.99,,2013-03-17 12:00:00,
2013-03-17 04:41:00,26.0,13.0,30.04,NNW,330,40.0,53.0,57,-99.99,,,-99.99,,2013-03-17 12:41:00,
2013-03-17 04:51:00,26.0,13.0,30.04,NNW,330,40.0,53.0,57,-99.99,,,-99.99,,2013-03-17 12:51:00,
2013-03-17 05:42:00,26.0,7.0,30.05,NNW,340,34.0,52.0,43,-99.99,,,-99.99,,2013-03-17 13:42:00,
2013-03-17 06:00:00,26.0,8.0,30.06,NNW,330,33.0,47.0,45,-99.99,,,-99.99,,2013-03-17 14:00:00,
2013-03-17 06:42:00,26.0,8.0,30.06,NNW,330,33.0,47.0,45,-99.99,,,-99.99,,2013-03-17 14:42:00,
2013-03-17 06:52:00,26.0,8.0,30.06,NNW,330,33.0,47.0,45,-99.99,,,-99.99,,2013-03-17 14:52:00,
2013-03-17 07:00:00,26.0,8.0,30.06,NNW,340,33.0,47.0,45,-99.99,,,-99.99,,2013-03-17 15:00:00,
2013-03-17 07:42:00,26.0,8.0,30.06,NNW,340,33.0,47.0,45,-99.99,,,-99.99,,2013-03-17 15:42:00,
2013-03-17 07:52:00,26.0,8.0,30.06,NNW,340,33.0,47.0,45,-99.99,,,-99.99,,2013-03-17 15:52:00,
2013-03-17 08:00:00,25.0,10.0,30.08,NNW,340,32.0,45.0,52,-99.99,,,-99.99,,2013-03-17 16:00:00,
2013-03-17 08:42:00,25.0,10.0,30.08,NNW,340,32.0,45.0,52,-99.99,,,-99.99,,2013-03-17 16:42:00,
2013-03-17 08:52:00,25.0,10.0,30.08,NNW,340,32.0,45.0,52,-99.99,,,-99.99,,2013-03-17 16:52:00,
2013-03-17 09:00:00,25.0,8.0,30.08,NNW,340,36.0,47.0,48,-99.99,,,-99.99,,2013-03-17 17:00:00,
2013-03-17 09:41:00,25.0,8.0,30.08,NNW,340,36.0,47.0,48,-99.99,,,-99.99,,2013-03-17 17:41:00,
2013-03-17 09:52:00,25.0,8.0,30.08,NNW,340,36.0,47.0,48,-99.99,,,-99.99,,2013-03-17 17:52:00,
2013-03-17 10:00:00,26.0,11.0,30.09,NNW,340,32.0,51.0,52,-99.99,,,-99.99,,2013-03-17 18:00:00,
2013-03-17 10:42:00,26.0,11.0,30.09,NNW,340,32.0,51.0,52,-99.99,,,-99.99,,2013-03-17 18:42:00,
2013-03-17 10:51:00,26.0,11.0,30.09,NNW,340,32.0,51.0,52,-99.99,,,-99.99,,2013-03-17 18:51:00,
2013-03-17 11:00:00,26.0,8.0,30.09,NNW,340,37.0,47.0,45,-99.99,,,-99.99,,2013-03-17 19:00:00,
2013-03-17 11:41:00,26.0,8.0,30.09,NNW,340,37.0,47.0,45,-99.99,,,-99.99,,2013-03-17 19:41:00,
2013-03-17 11:52:00,26.0,8.0,30.09,NNW,340,37.0,47.0,45,-99.99,,,-99.99,,2013-03-17 19:52:00,
2013-03-17 12:00:00,27.0,8.0,30.10,NNW,340,32.0,47.0,44,-99.99,,,-99.99,,2013-03-17 20:00:00,
2013-03-17 12:41:00,27.0,8.0,30.10,NNW,340,32.0,47.0,44,-99.99,,,-99.99,,2013-03-17 20:41:00,
2013-03-17 12:52:00,27.0,8.0,30.10,NNW,340,32.0,47.0,44,-99.99,,,-99.99,,2013-03-17 20:52:00,
2013-03-17 13:00:00,27.0,10.0,30.09,NW,320,31.0,44.0,48,-99.99,,,-99.99,,2013-03-17 21:00:00,
2013-03-17 13:42:00,27.0,10.0,30.09,NW,320,31.0,44.0,48,-99.99,,,-99.99,,2013-03-17 21:42:00,
2013-03-17 13:52:00,27.0,10.0,30.09,NW,320,31.0,44.0,48,-99.99,,,-99.99,,2013-03-17 21:52:00,
2013-03-17 14:00:00,28.0,10.0,30.09,NNW,330,31.0,45.0,46,-99.99,,,-99.99,,2013-03-17 22:00:00,
2013-03-17 14:41:00,28.0,10.0,30.09,NNW,330,31.0,45.0,46,-99.99,,,-99.99,,2013-03-17 22:41:00,
2013-03-17 14:52:00,28.0,10.0,30.09,NNW,330,31.0,45.0,46,-99.99,,,-99.99,,2013-03-17 22:52:00,
2013-03-17 15:00:00,28.0,8.0,30.08,NNW,330,30.0,41.0,42,-99.99,,,-99.99,,2013-03-17 23:00:00,
2013-03-17 15:41:00,28.0,8.0,30.08,NNW,330,30.0,41.0,42,-99.99,,,-99.99,,2013-03-17 23:41:00,
2013-03-17 15:52:00,28.0,8.0,30.08,NNW,330,30.0,41.0,42,-99.99,,,-99.99,,2013-03-17 23:52:00,
2013-03-17 16:00:00,29.0,8.0,30.07,NNW,330,26.0,41.0,40,-99.99,,,-99.99,,2013-03-18 00:00:00,
2013-03-17 16:41:00,29.0,8.0,30.07,NNW,330,26.0,41.0,40,-99.99,,,-99.99,,2013-03-18 00:41:00,
2013-03-17 16:52:00,29.0,8.0,30.07,NNW,330,26.0,41.0,40,-99.99,,,-99.99,,2013-03-18 00:52:00,
2013-03-17 17:00:00,29.0,12.0,30.06,NNW,330,23.0,40.0,48,-99.99,,,-99.99,,2013-03-18 01:00:00,
2013-03-17 17:41:00,29.0,12.0,30.06,NNW,330,23.0,40.0,48,-99.99,,,-99.99,,2013-03-18 01:41:00,
2013-03-17 17:52:00,29.0,12.0,30.06,NNW,330,23.0,40.0,48,-99.99,,,-99.99,,2013-03-18 01:52:00,
2013-03-17 18:00:00,29.0,8.0,30.05,NNW,340,29.0,38.0,40,-99.99,,,-99.99,,2013-03-18 02:00:00,
2013-03-17 18:42:00,29.0,8.0,30.05,NNW,340,29.0,38.0,40,-99.99,,,-99.99,,2013-03-18 02:42:00,
2013-03-17 18:51:00,29.0,8.0,30.05,NNW,340,29.0,38.0,40,-99.99,,,-99.99,,2013-03-18 02:51:00,
2013-03-17 19:00:00,28.0,9.0,30.04,NNW,330,26.0,39.0,44,-99.99,,,-99.99,,2013-03-18 03:00:00,
2013-03-17 19:42:00,28.0,9.0,30.04,NNW,330,26.0,39.0,44,-99.99,,,-99.99,,2013-03-18 03:42:00,
2013-03-17 19:52:00,28.0,9.0,30.04,NNW,330,26.0,39.0,44,-99.99,,,-99.99,,2013-03-18 03:52:00,
2013-03-17 20:00:00,27.0,8.0,30.04,NNW,330,30.0,40.0,44,-99.99,,,-99.99,,2013-03-18 04:00:00,
2013-03-17 20:41:00,27.0,8.0,30.04,NNW,330,30.0,40.0,44,-99.99,,,-99.99,,2013-03-18 04:41:00,
2013-03-17 20:52:00,27.0,8.0,30.04,NNW,330,30.0,40.0,44,-99.99,,,-99.99,,2013-03-18 04:52:00,
2013-03-17 21:00:00,27.0,11.0,30.04,NNW,340,31.0,45.0,50,-99.99,,,-99.99,,2013-03-18 05:00:00,
2013-03-17 21:42:00,27.0,11.0,30.04,NNW,340,31.0,45.0,50,-99.99,,,-99.99,,2013-03-18 05:42:00,
2013-03-17 21:51:00,27.0,11.0,30.04,NNW,340,31.0,45.0,50,-99.99,,,-99.99,,2013-03-18 05:51:00,
2013-03-17 22:00:00,26.0,10.0,30.03,NNW,330,30.0,39.0,50,-99.99,,,-99.99,,2013-03-18 06:00:00,
2013-03-17 22:41:00,26.0,10.0,30.03,NNW,330,30.0,39.0,50,-99.99,,,-99.99,,2013-03-18 06:41:00,
2013-03-17 22:51:00,26.0,10.0,30.03,NNW,330,30.0,39.0,50,-99.99,,,-99.99,,2013-03-18 06:51:00,
2013-03-17 23:00:00,26.0,12.0,30.02,North,350,32.0,44.0,54,-99.99,,,-99.99,,2013-03-18 07:00:00,
2013-03-17 23:41:00,26.0,12.0,30.02,North,350,32.0,44.0,54,-99.99,,,-99.99,,2013-03-18 07:41:00,
2013-03-17 23:52:00,26.0,12.0,30.02,North,350,32.0,44.0,54,-99.99,,,-99.99,,2013-03-18 07:52:00,